Theta_e
318 312 308 308 297 293 289 293 295 299 298 303 312 306 299 299 308 301 306 302 302 307 341 342 345 349 348 348 347 347 346 344 343 342 343 339 337 336 337 337 336 338 342 343 342 341 338 338 338
313 308 310 302 291 288 290 295 296 299 301 308 310 306 299 297 299 297 295 299 301 314 343 342 342 347 349 348 347 346 346 345 345 344 344 343 340 338 337 337 336 335 336 340 340 339 337 337 338
303 309 304 297 288 288 291 295 297 300 301 305 303 295 290 288 295 293 295 298 300 306 312 342 341 345 348 348 347 347 346 345 345 345 344 343 342 340 338 336 337 336 336 337 338 338 337 335 337
304 308 303 294 289 291 291 294 297 299 301 301 294 288 290 292 292 294 296 297 297 301 304 311 333 344 346 346 346 347 346 345 345 345 345 344 342 341 341 339 336 336 337 337 338 337 336 334 335
307 302 295 291 290 292 292 293 297 296 296 294 299 292 288 292 294 294 294 296 295 298 302 306 320 325 333 342 344 344 345 345 345 345 345 345 343 343 342 341 338 336 335 335 336 338 336 333 334
302 300 292 289 290 293 292 291 294 293 295 291 292 292 288 292 293 294 295 294 297 298 303 307 314 321 325 330 333 339 343 344 343 344 344 344 344 343 342 340 338 337 335 334 336 338 337 334 333
300 296 292 291 291 291 290 289 288 288 289 287 288 290 287 290 292 294 294 295 297 300 302 305 310 315 318 323 321 329 334 340 341 341 341 341 341 342 342 340 339 338 337 337 337 336 338 335 332
301 298 291 287 290 291 287 287 286 285 286 287 287 283 282 287 292 294 294 294 295 296 298 302 308 311 311 312 315 318 321 326 332 333 334 333 334 335 336 335 337 339 339 337 336 336 337 336 334
302 293 289 287 290 288 285 284 285 284 284 284 286 285 287 289 292 292 291 292 293 296 295 298 303 306 308 308 309 311 315 318 319 320 326 329 334 335 332 332 333 337 337 337 336 336 334 333 331
294 290 287 285 284 284 284 282 282 281 281 281 282 285 289 289 289 289 289 290 291 292 293 295 298 301 304 306 306 307 309 310 312 313 317 323 328 334 334 328 328 332 332 334 336 335 331 326 324
285 287 284 283 284 284 283 281 283 281 280 282 281 283 287 287 287 289 289 289 290 291 293 294 295 297 299 302 303 303 305 306 308 308 316 323 317 322 334 333 331 329 325 331 332 331 327 322 321
284 285 285 286 285 284 281 284 282 282 284 286 285 285 287 287 287 288 288 289 290 292 293 294 294 294 295 299 300 301 302 303 305 306 309 309 310 312 313 317 330 330 330 328 329 326 325 322 320
283 282 283 284 284 282 284 282 282 283 285 285 286 288 287 287 287 288 289 290 291 291 292 292 293 293 295 296 298 299 300 301 303 304 307 307 309 309 310 313 313 326 330 328 326 325 322 320 320
282 283 281 282 283 284 282 281 282 283 285 284 286 286 286 287 287 286 288 289 289 291 291 292 292 293 294 294 296 297 299 300 302 303 305 305 307 307 308 308 310 313 314 317 326 324 323 321 320
283 281 282 280 283 282 282 280 281 282 284 284 285 285 285 287 288 287 287 288 289 290 291 291 292 293 292 292 294 296 298 300 300 301 304 303 305 306 305 306 307 309 311 312 314 321 324 322 321
280 279 277 280 282 282 280 280 282 283 283 283 283 283 284 286 287 287 288 288 289 289 290 291 293 291 292 292 293 295 297 298 298 300 302 302 304 305 304 304 305 308 308 308 311 313 319 321 321
277 275 275 278 281 281 280 279 282 283 282 282 282 282 283 284 286 287 287 287 289 289 290 290 290 290 291 292 293 294 296 297 298 298 299 300 303 304 303 303 304 305 305 307 308 309 311 315 320
275 275 276 275 279 279 278 280 283 284 283 282 282 282 282 283 286 287 288 288 289 289 289 289 290 291 291 292 292 293 294 295 296 296 298 299 300 301 302 303 303 303 304 304 306 306 308 310 310
277 274 274 276 279 278 276 277 282 282 281 282 282 282 282 283 286 287 287 287 288 289 289 289 289 290 290 290 290 291 291 292 293 295 297 298 299 300 300 299 301 301 300 301 304 304 305 307 311
277 275 275 278 279 278 276 278 282 280 280 281 282 281 282 282 284 287 286 286 286 286 287 287 289 290 291 291 292 292 292 293 294 296 296 298 298 298 298 298 298 298 298 300 300 302 304 305 309
276 276 274 275 278 276 275 277 279 280 281 282 281 282 283 283 284 285 285 286 285 285 286 288 289 290 290 291 292 292 292 292 292 293 293 294 296 297 297 297 297 297 298 298 299 301 300 299 303
277 278 278 277 276 274 275 274 278 278 280 281 282 281 282 283 284 284 285 285 285 286 286 287 289 289 290 291 291 289 289 289 291 292 293 293 294 295 296 296 296 296 298 297 298 300 300 301 300
278 279 277 277 274 272 273 272 277 277 280 281 282 282 282 283 283 284 285 285 286 286 286 286 287 288 290 290 290 290 289 291 291 292 291 292 293 294 294 295 295 295 296 297 297 298 299 301 300
280 278 278 275 274 269 272 272 276 278 280 279 280 282 283 283 283 284 284 285 285 286 286 286 287 288 289 289 290 289 289 289 290 290 290 290 291 292 293 294 293 294 295 296 296 297 298 298 299
279 276 271 270 268 272 272 271 278 280 281 281 282 283 282 282 283 283 284 285 285 285 285 286 287 287 288 289 289 289 290 290 289 289 288 288 288 289 291 292 292 293 293 294 295 295 296 297 298
275 275 272 267 269 271 275 272 280 281 282 282 282 282 282 282 283 283 284 284 284 285 284 285 286 286 288 288 289 290 290 289 288 288 289 288 288 289 291 292 293 293 294 294 296 296 297 298 298
275 272 275 270 267 267 272 276 282 282 282 282 282 281 282 282 283 283 284 284 284 284 284 284 285 287 288 288 289 289 288 288 288 289 290 290 290 290 290 292 293 293 293 293 293 293 294 297 298
276 278 272 270 266 264 272 273 278 281 280 280 281 281 282 282 283 283 284 284 284 283 284 284 286 286 287 287 288 288 287 288 288 288 289 290 290 291 290 290 290 290 291 291 292 292 293 293 295
274 272 272 272 272 269 267 273 279 281 281 282 281 282 282 282 283 283 283 283 283 283 283 284 285 285 286 286 286 286 286 286 287 288 288 288 289 290 290 290 290 290 290 290 290 291 292 293 293
276 274 275 270 268 269 271 272 282 281 282 281 282 282 281 282 283 282 282 282 282 282 282 284 285 284 285 285 285 285 286 286 286 286 286 287 287 288 288 288 288 289 290 291 290 290 292 292 293
Wind_Speed
12 10 0 5 5 6 2 2 1 5 5 7 5 13 10 4 4 5 9 13 21 18 3 5 8 7 7 6 5 7 9 8 8 7 7 7 7 6 6 4 4 5 7 7 10 8 6 3 6
7 6 4 3 6 4 3 3 1 3 3 3 8 3 7 5 6 4 7 20 18 15 5 3 6 8 7 8 7 8 10 10 10 10 10 10 9 9 9 7 6 5 2 6 6 7 7 4 5
5 1 4 5 4 4 4 1 5 2 4 4 5 7 5 5 5 4 6 14 13 13 16 4 7 9 10 10 9 9 10 11 11 12 12 11 12 11 11 10 9 9 8 7 8 7 7 6 7
5 5 5 6 3 1 1 5 5 7 5 9 4 8 5 2 4 7 11 10 10 12 12 15 16 13 11 11 11 11 12 13 14 14 14 15 13 12 11 11 12 12 12 11 11 10 11 8 9
4 3 4 4 2 3 1 2 6 5 2 6 4 6 6 3 7 7 9 10 11 12 12 13 19 21 17 14 14 13 12 12 13 14 15 14 15 13 13 13 13 14 14 14 15 12 13 11 11
3 3 4 4 3 2 1 5 2 4 4 4 5 4 5 3 7 8 8 9 9 9 10 11 15 19 20 21 22 19 16 14 13 13 14 14 14 15 16 16 16 16 16 15 15 14 13 15 13
5 4 5 4 6 1 3 7 3 3 4 4 2 4 1 6 7 7 7 7 7 8 9 10 10 14 18 19 23 22 21 16 14 15 14 14 14 15 16 17 17 17 17 16 17 15 15 15 14
5 4 4 2 5 5 2 5 1 4 1 2 1 1 0 3 7 7 6 8 8 7 7 8 8 9 10 10 19 19 21 22 18 14 15 13 12 14 14 14 16 19 19 17 18 16 16 16 15
2 5 3 4 6 2 2 3 3 2 3 3 3 3 1 1 3 7 6 7 7 8 7 7 8 9 9 9 12 15 17 17 17 17 16 12 9 10 11 13 15 20 20 20 19 19 14 14 13
6 4 4 2 2 2 2 1 3 1 2 1 1 3 4 3 4 5 5 6 6 7 6 6 7 7 7 7 8 8 9 8 9 10 11 8 11 11 10 11 16 18 18 20 21 21 17 13 9
3 3 4 1 2 1 1 1 2 3 4 5 5 4 3 2 3 5 5 3 4 4 4 6 5 6 7 5 4 3 4 5 6 11 11 11 9 11 7 7 7 10 14 11 14 13 11 12 10
7 3 2 3 1 1 1 4 5 3 5 5 8 5 4 4 3 4 4 5 5 6 6 7 7 6 6 3 3 4 4 4 5 7 10 9 6 9 7 7 10 9 9 12 13 9 11 11 12
4 3 3 3 2 2 1 4 5 7 8 4 5 6 5 4 5 5 6 6 6 6 6 7 7 7 5 6 4 4 4 4 4 4 6 7 7 8 8 8 7 10 9 11 12 12 11 11 12
2 5 4 0 3 0 2 3 2 5 6 5 5 6 6 6 6 4 5 7 5 6 7 6 7 6 6 5 5 5 4 4 4 4 5 6 6 6 7 8 7 6 7 9 10 11 12 12 12
5 4 2 1 4 2 1 5 9 3 6 7 6 6 7 8 7 7 6 7 5 5 6 7 7 6 6 7 6 4 4 5 4 4 5 6 6 6 7 6 7 6 7 9 10 10 11 11 12
4 4 1 1 7 1 1 9 3 5 7 9 8 8 7 7 7 6 6 6 6 6 7 7 5 7 7 7 5 4 5 4 5 4 4 6 7 7 6 6 7 5 6 6 8 7 11 11 12
7 2 2 5 3 4 2 8 4 4 8 10 9 9 8 8 8 7 7 6 6 6 7 7 6 7 7 7 5 6 7 5 5 4 5 7 7 7 7 6 7 7 7 6 5 9 7 10 12
4 2 3 5 5 5 4 19 13 10 8 11 10 9 9 8 11 7 7 6 6 6 6 7 6 7 7 5 5 4 4 5 5 5 5 8 7 8 7 6 8 7 7 7 7 9 8 7 6
5 2 2 3 1 5 4 11 24 10 11 14 13 13 10 11 7 7 7 6 7 6 6 7 7 8 4 3 4 4 4 4 4 4 7 8 8 9 8 6 7 7 6 8 9 9 10 8 7
2 1 3 6 1 3 6 18 16 6 7 8 12 12 11 6 7 8 6 5 6 6 8 8 8 8 5 3 4 4 4 4 6 6 7 8 10 9 8 8 8 9 8 9 8 10 7 8 8
2 1 2 3 8 1 8 10 5 3 3 4 6 7 7 10 10 8 6 6 6 7 8 7 8 7 6 6 4 4 4 4 6 7 8 5 9 9 10 10 9 9 8 8 9 8 9 11 10
1 2 2 4 7 4 5 8 9 4 9 5 5 7 8 9 7 5 6 7 6 7 7 7 7 7 6 6 5 5 6 12 10 9 8 8 9 10 10 11 11 10 8 9 9 9 10 11 12
2 1 1 2 2 4 1 2 12 4 6 6 7 8 9 9 8 8 8 7 7 6 6 6 7 7 5 6 6 6 11 10 9 9 12 11 9 8 9 10 10 11 9 10 10 11 11 10 9
2 2 3 3 2 3 1 4 9 5 5 3 3 8 9 9 8 8 6 6 7 6 5 5 6 6 6 7 8 9 12 13 11 11 11 10 9 8 9 10 10 10 11 11 10 12 13 12 11
2 5 4 7 5 6 0 1 15 4 6 5 4 7 9 8 8 6 6 7 6 7 6 6 6 8 7 8 9 9 12 13 13 13 12 14 10 10 11 12 11 10 11 12 11 12 13 13 12
2 4 6 6 3 5 3 9 9 6 5 7 6 6 5 7 6 6 7 7 7 7 7 6 7 7 7 8 10 10 11 8 9 12 13 12 11 12 14 13 15 14 13 12 13 11 12 13 13
3 1 1 6 2 3 5 9 13 7 11 8 9 5 8 8 7 8 7 6 6 6 7 6 7 7 8 9 10 11 10 12 12 15 14 13 13 14 15 16 16 15 17 16 14 12 15 13 13
3 5 4 4 2 6 6 6 10 5 3 2 6 9 9 8 7 7 7 7 5 6 5 7 7 7 8 9 9 10 13 12 13 14 16 17 15 16 16 17 16 16 18 18 16 14 15 16 13
3 2 3 3 5 6 4 9 9 7 4 8 9 10 9 9 8 7 7 7 6 5 6 7 6 7 8 8 10 12 13 13 14 15 17 17 18 17 19 19 19 18 17 18 19 17 17 19 18
1 3 5 6 7 3 3 14 4 7 7 5 9 7 6 7 8 7 7 7 5 6 6 6 6 6 7 8 10 12 13 13 14 15 16 16 18 18 20 20 20 19 18 17 17 18 17 18 18
Wind_Direction
327 317 192 36 59 64 32 23 264 338 15 326 48 89 112 45 32 113 318 336 339 333 224 206 218 219 220 210 240 225 208 209 223 224 218 204 200 211 225 254 292 326 200 158 145 136 125 143 148
318 330 36 78 84 79 277 292 2 22 301 203 76 70 45 78 19 19 5 335 335 340 331 234 227 228 222 225 223 235 229 216 224 232 236 223 225 218 217 229 248 255 226 169 165 153 144 187 188
307 50 68 85 96 131 161 315 295 280 352 22 91 54 51 335 339 1 321 320 333 3 10 300 245 243 233 227 221 216 225 237 239 238 244 233 233 231 227 221 232 246 244 238 194 156 172 196 226
356 11 32 76 86 23 38 308 306 321 353 35 124 76 77 89 6 320 315 327 346 353 3 11 1 295 264 252 241 225 221 228 234 242 247 237 230 230 230 228 228 236 242 241 235 196 197 200 237
30 52 66 83 119 144 70 318 328 35 47 354 358 159 131 25 326 329 341 357 3 354 3 6 8 18 7 326 292 270 257 247 241 244 248 249 240 233 233 232 228 234 237 243 243 217 198 187 225
42 92 74 157 171 166 307 4 308 38 7 4 43 96 153 113 16 340 353 357 354 358 359 9 7 11 14 14 12 350 298 265 258 253 253 252 253 236 236 233 230 232 236 238 238 236 213 183 209
112 87 159 116 153 116 313 339 47 344 357 24 307 109 121 4 358 345 352 358 2 4 10 4 7 7 6 12 11 6 2 325 315 294 264 250 247 247 248 234 226 228 232 237 240 233 216 197 196
101 90 98 31 180 199 302 337 73 42 55 9 22 102 8 331 342 357 0 5 4 7 10 3 6 10 6 10 8 5 5 11 344 320 302 280 257 248 247 241 228 221 226 232 233 245 216 213 198
84 64 137 175 146 210 342 26 34 302 96 46 5 140 194 348 355 18 4 355 359 7 3 3 7 10 9 15 5 3 2 0 357 358 335 293 267 260 249 243 230 228 224 217 228 236 231 221 209
66 89 185 180 137 176 312 301 329 38 44 91 316 315 324 10 22 18 8 356 358 351 342 4 360 6 5 11 5 358 358 354 351 344 341 333 334 275 245 237 227 228 224 224 219 224 230 228 235
23 133 161 186 182 160 205 263 296 148 229 205 187 205 211 224 322 352 357 338 306 295 328 343 353 353 9 2 355 358 351 347 346 346 355 353 357 348 283 246 236 228 229 228 227 223 214 217 221
87 42 152 161 31 157 162 317 302 198 237 175 199 192 177 218 245 245 277 287 296 318 310 321 342 346 347 350 356 336 349 343 345 340 343 341 333 332 325 352 298 234 229 223 225 223 226 207 203
87 156 95 89 77 136 285 242 239 250 241 227 219 200 223 249 257 254 243 278 291 308 311 312 327 330 334 345 339 335 333 329 313 323 328 338 327 323 332 330 318 313 244 227 222 222 214 216 213
110 110 126 332 15 263 341 270 0 259 198 220 216 228 250 259 268 281 289 272 274 283 295 300 316 317 334 329 323 313 309 299 308 305 301 321 313 310 323 318 316 320 336 341 259 220 226 222 213
124 76 347 248 348 291 32 258 233 241 162 203 230 243 264 255 275 260 260 274 267 278 285 298 311 317 328 317 310 311 303 315 300 291 288 301 304 298 304 298 308 305 321 340 333 304 229 231 227
48 59 62 65 360 278 262 271 318 190 167 221 236 249 260 265 251 265 263 257 275 276 286 294 301 306 308 301 295 297 300 294 289 285 275 282 288 291 294 293 298 298 303 292 293 290 293 225 221
13 227 277 317 54 311 49 274 275 170 194 229 237 241 247 267 275 260 255 246 258 258 277 293 298 289 295 296 295 294 291 285 278 281 283 282 276 276 282 287 288 295 297 291 296 294 291 309 237
213 191 241 262 337 352 279 269 254 249 228 236 235 238 247 250 250 252 261 260 270 274 278 281 290 298 309 296 288 282 284 278 272 272 273 280 278 271 272 275 278 292 295 295 298 289 288 285 293
102 99 275 262 43 332 235 276 279 240 231 236 228 235 242 235 248 245 250 263 281 281 304 298 306 302 312 318 322 308 281 279 271 266 267 271 275 273 270 270 270 272 277 278 286 287 282 287 267
68 150 276 275 159 7 342 289 282 257 236 223 222 222 226 224 240 253 262 270 278 284 292 294 288 294 305 309 281 261 288 281 283 274 276 273 275 273 272 266 269 269 273 274 276 275 269 265 259
49 33 5 289 325 231 316 290 318 280 257 246 238 219 207 211 225 250 267 269 287 293 292 288 290 303 308 298 288 298 293 288 300 297 294 263 266 268 269 270 266 267 262 266 269 271 273 278 277
323 77 61 335 16 287 15 281 302 323 301 263 248 217 220 219 233 244 251 268 265 277 292 295 313 310 297 307 315 307 301 305 303 298 294 287 273 268 267 269 272 269 265 263 262 264 259 259 266
151 27 58 87 73 349 8 48 270 341 286 265 242 230 228 226 224 247 243 246 274 285 296 311 308 295 309 318 311 299 298 296 297 293 297 291 283 268 267 271 274 270 265 263 259 261 263 262 272
149 128 65 52 72 13 235 135 279 219 216 234 228 229 225 223 235 240 261 277 277 296 311 314 298 299 327 318 302 293 294 299 300 301 301 302 298 286 272 265 266 265 264 262 264 266 261 259 259
118 62 330 350 6 227 348 221 246 270 241 228 213 235 226 219 212 234 279 289 288 304 313 305 313 317 312 295 297 294 294 296 297 305 305 305 305 297 290 283 275 266 260 259 257 258 260 260 257
94 144 157 226 245 278 297 239 255 218 234 253 276 264 218 207 215 232 268 271 274 288 293 297 320 304 294 301 306 297 293 290 297 299 300 295 295 291 289 290 286 277 267 262 257 255 250 254 260
153 139 155 98 62 36 239 289 293 251 262 261 234 236 248 240 224 242 265 266 275 283 291 302 300 288 309 309 305 303 302 293 291 296 292 295 289 293 293 290 290 297 296 288 279 271 268 261 256
160 155 74 4 337 294 279 276 247 294 275 250 237 238 239 236 250 257 277 289 274 273 286 295 290 296 305 303 309 312 309 303 304 298 288 288 293 294 289 281 276 279 280 281 275 268 264 260 257
142 174 61 113 157 195 297 254 218 234 242 239 242 241 233 232 242 269 284 283 266 281 288 293 300 307 310 313 320 318 312 310 306 298 300 302 301 293 287 284 282 277 273 274 273 263 261 258 255
332 218 173 132 231 227 152 267 262 230 245 239 259 268 258 243 264 268 274 278 281 280 297 298 306 307 315 315 318 315 316 314 309 306 306 302 299 300 297 294 289 284 278 270 265 270 267 261 257